This is the latest recevied weather packets stored in our database for station/object N3AVN. If no packets are shown the sender has not sent any weather packets the latest 10 day(s).
| Time | Temp. | Humidity | Pressure | Rain* | Wind** | Luminosity | Snow |
|---|---|---|---|---|---|---|---|
| 1778156792 | 10° C | 58% | 1009.1 hPa | 0 mm | - | 311 W/m² | - |
| 1778156488 | 10° C | 57% | 1009 hPa | 0 mm | - | 317 W/m² | - |
| 1778156184 | 10° C | 63% | 1008.8 hPa | 0 mm | - | 301 W/m² | - |
| 1778155880 | 10.56° C | 60% | 1008.7 hPa | 0 mm | - | 257 W/m² | - |
| 1778155576 | 10° C | 64% | 1008.6 hPa | 0 mm | - | 257 W/m² | - |
| 1778155273 | 9.44° C | 65% | 1008.8 hPa | 0 mm | - | 202 W/m² | - |
| 1778154969 | 9.44° C | 68% | 1008.7 hPa | 0 mm | - | 177 W/m² | - |
| 1778154665 | 8.89° C | 68% | 1008.7 hPa | 0 mm | - | 128 W/m² | - |
| 1778154361 | 8.89° C | 71% | 1008.7 hPa | 0 mm | - | 70 W/m² | - |
| 1778154058 | 8.89° C | 71% | 1008.7 hPa | 0 mm | - | 71 W/m² | - |
| 1778153755 | 8.89° C | 74% | 1008.8 hPa | 0 mm | - | 73 W/m² | - |
| 1778153453 | 8.89° C | 76% | 1008.6 hPa | 0 mm | - | 70 W/m² | - |
| 1778153151 | 8.33° C | 78% | 1008.6 hPa | 0 mm | - | 38 W/m² | - |
| 1778152847 | 8.33° C | 77% | 1008.7 hPa | 0 mm | - | 34 W/m² | - |
| 1778152544 | 8.33° C | 78% | 1008.3 hPa | 0 mm | - | 33 W/m² | - |
| 1778152241 | 8.33° C | 78% | 1008.4 hPa | 0 mm | - | 45 W/m² | - |
| 1778151937 | 8.33° C | 81% | 1008.3 hPa | 0 mm | - | 48 W/m² | - |
| 1778151633 | 8.89° C | 82% | 1008.3 hPa | 0 mm | - | 45 W/m² | - |
| 1778151331 | 8.33° C | 83% | 1008.2 hPa | 0 mm | - | 44 W/m² | - |
| 1778151026 | 8.89° C | 86% | 1008.3 hPa | 0 mm | - | 40 W/m² | - |
| 1778150724 | 8.33° C | 87% | 1008.2 hPa | 0 mm | - | 31 W/m² | - |
| 1778150420 | 8.33° C | 88% | 1007.7 hPa | 0 mm | - | 22 W/m² | - |
| 1778150117 | 8.33° C | 89% | 1008 hPa | 0 mm | - | 18 W/m² | - |
| 1778149813 | 7.78° C | 91% | 1007.8 hPa | 0 mm | - | 11 W/m² | - |
| 1778149510 | 8.33° C | 93% | 1007.8 hPa | 0 mm | - | 11 W/m² | - |
* Rain latest hour (hover to see other rain measurements)
** Current wind speed in m/s (hover to see current wind gust speed)